STARLINK-4171 (52878 NORAD) Tracking and Keplerian Element Data

This shows tracking and keplerian element data for the satellite.

Feedback or suggestion? Click here.




ElementValue
Catalog52878
NameSTARLINK-4171
Epoch Orbit1304
Epoch Day248.25001157
Epoch Year2022
RAAN10.689
Inclination53.2173
Eccentricity0.0001421
Argument of Perigee40.3674
Mean Anonmoly11.3863
Mean Motion15.57154798
Decay Rate-0.01061288
L11 52878U 22062BA 22248.25001157 -.01061288 00000+0 -15783-1 0 9993
L22 52878 53.2173 10.6890 0001421 40.3674 11.3863 15.57154798 13041

Live tracking and technical data element details for STARLINK-4171 (NORAD 52878). STARLINK-4171 can be tracked NOW for your location showing map with azimuth and elevation plus other details from your city location.

Track the satellite on the map from your city or location and see movement details for azimuth, elevation, latitude, longitude, range, height, and movement on the map or in text.







IsCatalogInMostPopularTable: catalog: 52878, numindb: 3
Update: records affected: 1



GetName: 52878 STARLINK-4171

Hit Count: updated at: Sun, 25 Sep 2022 07:15:20 GMT